This is the latest recevied weather packets stored in our database for station/object KJ7BRE-1. If no packets are shown the sender has not sent any weather packets the latest 10 day(s).
| Time | Temp. | Humidity | Pressure | Rain* | Wind** | Luminosity | Snow |
|---|---|---|---|---|---|---|---|
| 1778208155 | 20.56° C | 46% | 1009.5 hPa | 0 mm | - | - | - |
| 1778207854 | 21.11° C | 44% | 1009.1 hPa | 0 mm | - | - | - |
| 1778207553 | 20.56° C | 43% | 1009.5 hPa | 0 mm | - | - | - |
| 1778207252 | 20.56° C | 47% | 1009.5 hPa | 0 mm | - | - | - |
| 1778206950 | 20.56° C | 44% | 1009.5 hPa | 0 mm | - | - | - |
| 1778206649 | 20.56° C | 43% | 1009.5 hPa | 0 mm | - | - | - |
| 1778206348 | 20.56° C | 42% | 1009.5 hPa | 0 mm | - | - | - |
| 1778206047 | 21.11° C | 41% | 1009.5 hPa | 0 mm | - | - | - |
| 1778205745 | 21.11° C | 41% | 1009.5 hPa | 0 mm | - | - | - |
| 1778205444 | 21.11° C | 40% | 1009.5 hPa | 0 mm | - | - | - |
| 1778205143 | 21.11° C | 40% | 1009.8 hPa | 0 mm | - | - | - |
| 1778204842 | 21.11° C | 40% | 1009.8 hPa | 0 mm | - | - | - |
| 1778204541 | 21.67° C | 39% | 1009.8 hPa | 0 mm | - | - | - |
| 1778203938 | 21.11° C | 39% | 1009.8 hPa | 0 mm | - | - | - |
| 1778203637 | 21.67° C | 38% | 1010.2 hPa | 0 mm | - | - | - |
| 1778203336 | 21.67° C | 40% | 1009.8 hPa | 0 mm | - | - | - |
| 1778203034 | 21.67° C | 39% | 1010.2 hPa | 0 mm | - | - | - |
| 1778202733 | 21.67° C | 40% | 1009.8 hPa | 0 mm | - | - | - |
| 1778202432 | 21.67° C | 39% | 1010.2 hPa | 0 mm | - | - | - |
| 1778202131 | 21.11° C | 39% | 1010.2 hPa | 0 mm | - | - | - |
| 1778201830 | 21.11° C | 39% | 1010.2 hPa | 0 mm | - | - | - |
| 1778201528 | 21.11° C | 38% | 1010.2 hPa | 0 mm | - | - | - |
| 1778201227 | 21.67° C | 37% | 1010.2 hPa | 0 mm | - | - | - |
| 1778200926 | 21.67° C | 38% | 1010.2 hPa | 0 mm | - | - | - |
| 1778200625 | 22.22° C | 37% | 1010.2 hPa | 0 mm | - | - | - |
* Rain latest hour (hover to see other rain measurements)
** Current wind speed in m/s (hover to see current wind gust speed)